QPF
0.01 0.00 0.04 0.03 0.03 0.04 0.04 0.09 0.08 0.08 0.13 0.11 0.10 0.08 0.05 0.06 0.04 0.05 0.07 0.08 0.25 0.30 0.08 0.30 0.15 0.33 0.16 0.73 0.48 0.40 0.35 0.19 0.13 0.25 0.16 0.20 0.07 0.07 0.08 0.05 0.31 0.13
0.01 0.01 0.04 0.05 0.05 0.03 0.03 0.04 0.04 0.09 0.07 0.05 0.11 0.07 0.08 0.07 0.09 0.03 0.02 0.07 0.12 0.32 0.25 0.30 0.31 0.34 0.50 0.26 0.41 0.41 0.63 0.66 0.28 0.33 0.29 0.33 0.24 0.24 0.34 0.22 0.37 0.34
0.00 0.02 0.02 0.03 0.03 0.02 0.03 0.02 0.05 0.06 0.05 0.03 0.05 0.03 0.05 0.09 0.04 0.03 0.03 0.05 0.08 0.34 0.15 0.11 0.16 0.24 0.14 0.15 0.50 0.53 0.47 0.37 0.46 0.80 0.78 0.33 0.51 0.36 0.16 0.23 0.40 0.35
0.00 0.01 0.01 0.01 0.02 0.01 0.02 0.02 0.07 0.04 0.04 0.07 0.08 0.10 0.05 0.01 0.02 0.01 0.06 0.05 0.07 0.12 0.13 0.06 0.13 0.18 0.26 0.27 0.31 0.22 0.25 0.33 0.49 0.52 0.40 0.34 0.30 0.36 0.19 0.26 0.24 0.28
0.00 0.00 0.03 0.03 0.02 0.01 0.02 0.01 0.02 0.02 0.02 0.03 0.03 0.01 0.04 0.02 0.02 0.01 0.04 0.03 0.03 0.04 0.08 0.07 0.02 0.12 0.08 0.11 0.08 0.13 0.10 0.13 0.62 0.58 0.43 0.28 0.44 0.45 0.35 0.42 0.47 0.46
0.00 0.00 0.00 0.00 0.04 0.01 0.02 0.04 0.05 0.07 0.01 0.04 0.03 0.03 0.04 0.12 0.05 0.08 0.04 0.07 0.04 0.03 0.05 0.04 0.14 0.09 0.05 0.04 0.15 0.17 0.09 0.10 0.16 0.28 0.62 0.31 0.21 0.55 0.65 0.61 0.76 0.38
0.01 0.00 0.00 0.00 0.01 0.01 0.01 0.02 0.01 0.02 0.01 0.01 0.01 0.02 0.05 0.10 0.06 0.06 0.03 0.08 0.11 0.07 0.07 0.15 0.06 0.21 0.12 0.16 0.29 0.11 0.18 0.19 0.13 0.16 0.26 0.23 0.41 0.41 0.67 0.67 0.43 0.73
0.00 0.02 0.01 0.01 0.01 0.01 0.01 0.01 0.01 0.01 0.04 0.00 0.00 0.06 0.07 0.08 0.05 0.04 0.04 0.11 0.06 0.03 0.04 0.12 0.08 0.08 0.20 0.13 0.07 0.26 0.21 0.12 0.13 0.13 0.14 0.29 0.44 0.53 0.72 0.87 0.58 0.47
0.00 0.00 0.01 0.02 0.01 0.01 0.01 0.00 0.00 0.03 0.03 0.03 0.03 0.01 0.03 0.03 0.04 0.02 0.03 0.05 0.05 0.02 0.04 0.06 0.06 0.13 0.05 0.02 0.06 0.28 0.22 0.12 0.25 0.40 0.39 0.20 0.08 0.08 0.12 0.15 0.13 0.14
0.00 0.00 0.00 0.00 0.02 0.02 0.02 0.02 0.01 0.01 0.01 0.02 0.03 0.07 0.05 0.01 0.01 0.01 0.02 0.00 0.01 0.00 0.00 0.00 0.00 0.00 0.00 0.00 0.00 0.02 0.02 0.07 0.25 0.34 0.16 0.18 0.33 0.30 0.06 0.19 0.12 0.21
0.00 0.00 0.00 0.00 0.02 0.03 0.02 0.01 0.01 0.01 0.01 0.02 0.05 0.06 0.03 0.02 0.00 0.00 0.00 0.00 0.00 0.00 0.00 0.00 0.00 0.00 0.00 0.00 0.00 0.00 0.00 0.03 0.10 0.02 0.04 0.19 0.09 0.13 0.19 0.26 0.28 0.18
0.00 0.00 0.00 0.00 0.00 0.01 0.01 0.01 0.01 0.00 0.01 0.00 0.02 0.07 0.04 0.04 0.00 0.00 0.00 0.00 0.00 0.00 0.00 0.00 0.00 0.00 0.00 0.00 0.00 0.00 0.02 0.01 0.01 0.02 0.04 0.14 0.15 0.22 0.49 0.34 0.43 0.40
0.00 0.00 0.00 0.00 0.00 0.00 0.00 0.01 0.00 0.00 0.00 0.00 0.01 0.02 0.03 0.00 0.00 0.00 0.00 0.00 0.00 0.00 0.00 0.00 0.00 0.00 0.00 0.00 0.00 0.00 0.00 0.00 0.00 0.00 0.00 0.03 0.19 0.21 0.38 0.27 0.32 0.30
0.00 0.00 0.00 0.00 0.00 0.00 0.00 0.00 0.00 0.00 0.00 0.00 0.01 0.00 0.00 0.00 0.00 0.00 0.00 0.00 0.00 0.00 0.00 0.00 0.00 0.00 0.00 0.00 0.00 0.00 0.00 0.00 0.00 0.00 0.00 0.00 0.01 0.01 0.03 0.10 0.17 0.27
0.00 0.00 0.00 0.00 0.00 0.00 0.00 0.00 0.00 0.00 0.00 0.00 0.00 0.00 0.00 0.00 0.00 0.00 0.00 0.00 0.00 0.00 0.00 0.00 0.00 0.00 0.00 0.00 0.00 0.00 0.00 0.00 0.00 0.00 0.00 0.00 0.00 0.00 0.00 0.00 0.01 0.02
0.00 0.00 0.00 0.00 0.00 0.00 0.00 0.00 0.00 0.00 0.00 0.00 0.00 0.00 0.00 0.00 0.00 0.00 0.00 0.00 0.00 0.00 0.00 0.00 0.00 0.00 0.00 0.00 0.00 0.00 0.00 0.00 0.00 0.00 0.00 0.00 0.00 0.00 0.00 0.00 0.00 0.00
0.00 0.00 0.00 0.00 0.00 0.00 0.00 0.00 0.00 0.00 0.00 0.00 0.00 0.00 0.00 0.00 0.00 0.00 0.00 0.00 0.00 0.00 0.00 0.00 0.00 0.00 0.00 0.00 0.00 0.00 0.00 0.00 0.00 0.00 0.00 0.00 0.00 0.00 0.00 0.00 0.00 0.00
0.00 0.00 0.00 0.00 0.00 0.00 0.00 0.00 0.00 0.00 0.00 0.00 0.00 0.00 0.00 0.00 0.00 0.00 0.00 0.00 0.00 0.00 0.00 0.00 0.00 0.00 0.00 0.00 0.00 0.00 0.00 0.00 0.00 0.00 0.00 0.00 0.00 0.00 0.00 0.00 0.00 0.00
0.00 0.00 0.00 0.00 0.00 0.00 0.00 0.00 0.00 0.00 0.00 0.00 0.00 0.00 0.00 0.00 0.00 0.00 0.00 0.00 0.00 0.00 0.00 0.00 0.00 0.00 0.00 0.00 0.00 0.00 0.00 0.00 0.00 0.00 0.00 0.00 0.00 0.00 0.00 0.00 0.00 0.00
0.00 0.00 0.00 0.00 0.00 0.00 0.00 0.00 0.00 0.00 0.00 0.00 0.00 0.00 0.00 0.00 0.00 0.00 0.00 0.00 0.00 0.00 0.00 0.00 0.00 0.00 0.00 0.00 0.00 0.00 0.00 0.00 0.00 0.00 0.00 0.00 0.00 0.00 0.00 0.00 0.00 0.00
0.00 0.00 0.00 0.00 0.00 0.00 0.00 0.00 0.00 0.00 0.00 0.00 0.00 0.00 0.00 0.00 0.00 0.00 0.00 0.00 0.00 0.00 0.00 0.00 0.00 0.00 0.00 0.00 0.00 0.00 0.00 0.00 0.00 0.00 0.00 0.00 0.00 0.00 0.00 0.00 0.00 0.00
0.00 0.00 0.00 0.00 0.00 0.00 0.00 0.00 0.00 0.00 0.00 0.00 0.00 0.00 0.00 0.00 0.00 0.00 0.00 0.00 0.00 0.00 0.00 0.00 0.00 0.00 0.00 0.00 0.00 0.00 0.00 0.00 0.00 0.00 0.00 0.00 0.00 0.00 0.00 0.00 0.00 0.00
0.00 0.00 0.00 0.00 0.00 0.00 0.00 0.00 0.00 0.00 0.00 0.00 0.00 0.00 0.00 0.00 0.00 0.00 0.00 0.00 0.00 0.00 0.00 0.00 0.00 0.00 0.00 0.00 0.00 0.00 0.00 0.00 0.00 0.00 0.00 0.00 0.00 0.00 0.00 0.00 0.00 0.00
0.00 0.00 0.00 0.00 0.00 0.00 0.00 0.00 0.00 0.00 0.00 0.00 0.00 0.00 0.00 0.00 0.00 0.00 0.00 0.00 0.00 0.00 0.00 0.00 0.00 0.00 0.00 0.00 0.00 0.00 0.00 0.00 0.00 0.00 0.00 0.00 0.00 0.00 0.00 0.00 0.00 0.00
0.00 0.00 0.00 0.00 0.00 0.00 0.00 0.00 0.00 0.00 0.00 0.00 0.00 0.00 0.00 0.00 0.00 0.00 0.00 0.00 0.00 0.00 0.00 0.00 0.00 0.00 0.00 0.00 0.00 0.00 0.00 0.00 0.00 0.00 0.00 0.00 0.00 0.00 0.00 0.00 0.00 0.00
0.00 0.00 0.00 0.00 0.00 0.00 0.00 0.00 0.00 0.00 0.00 0.00 0.00 0.00 0.00 0.00 0.00 0.00 0.00 0.00 0.00 0.00 0.00 0.00 0.00 0.00 0.00 0.00 0.00 0.00 0.00 0.00 0.00 0.00 0.00 0.00 0.00 0.00 0.00 0.00 0.00 0.00
MSLP
1018.38 1018.22 1018.26 1018.14 1018.06 1017.74 1017.54 1017.38 1017.14 1017.10 1016.94 1016.70 1016.58 1016.30 1016.18 1015.94 1015.70 1015.70 1015.50 1015.54 1016.10 1016.50 1016.26 1015.86 1015.62 1015.66 1015.74 1015.82 1015.82 1015.74 1015.66 1015.78 1015.54 1015.26 1015.26 1015.22 1015.06 1014.90 1014.86 1014.70 1014.70 1014.74
1018.22 1018.30 1018.02 1017.86 1017.78 1017.62 1017.34 1017.10 1017.02 1017.02 1016.90 1016.58 1016.38 1016.22 1016.02 1015.82 1015.74 1015.58 1015.50 1015.50 1015.74 1016.06 1016.14 1015.90 1015.54 1015.34 1015.38 1015.42 1015.66 1015.70 1015.66 1015.62 1015.50 1015.50 1015.58 1015.58 1015.34 1015.10 1015.02 1014.94 1015.06 1014.98
1018.06 1017.94 1017.90 1017.82 1017.78 1017.58 1017.34 1017.06 1016.94 1016.82 1016.78 1016.54 1016.30 1016.14 1016.06 1015.82 1015.70 1015.46 1015.42 1015.42 1015.58 1015.54 1015.74 1015.78 1015.54 1015.50 1015.50 1015.54 1015.54 1015.58 1015.42 1015.18 1015.22 1015.42 1015.62 1015.58 1015.50 1015.22 1014.98 1014.90 1014.90 1014.74
1017.94 1017.90 1017.82 1017.70 1017.58 1017.50 1017.38 1017.22 1017.02 1016.98 1016.82 1016.66 1016.46 1016.34 1016.14 1015.94 1015.74 1015.58 1015.54 1015.78 1015.90 1015.98 1015.82 1015.62 1015.46 1015.42 1015.42 1015.42 1015.38 1015.38 1015.38 1015.30 1015.10 1015.10 1015.26 1015.18 1015.14 1015.10 1014.86 1014.74 1014.66 1014.54
1017.86 1017.74 1017.66 1017.58 1017.46 1017.38 1017.30 1017.22 1017.10 1016.94 1016.82 1016.66 1016.46 1016.26 1016.26 1016.02 1015.94 1016.02 1015.98 1016.06 1015.94 1016.14 1015.86 1015.66 1015.54 1015.50 1015.30 1015.22 1015.18 1015.18 1015.06 1015.10 1014.94 1014.94 1014.90 1014.78 1014.62 1014.66 1014.62 1014.70 1014.86 1015.02
1017.98 1017.78 1017.66 1017.62 1017.54 1017.46 1017.42 1017.26 1017.14 1016.98 1016.86 1016.74 1016.54 1016.30 1016.22 1016.22 1016.26 1016.34 1016.30 1016.34 1016.06 1015.90 1015.86 1015.70 1015.66 1015.62 1015.50 1015.38 1015.22 1015.14 1015.02 1014.94 1014.78 1014.70 1014.74 1014.66 1014.54 1014.54 1014.62 1014.66 1014.66 1014.70
1018.14 1017.98 1017.82 1017.58 1017.58 1017.50 1017.46 1017.30 1017.18 1017.02 1017.02 1016.78 1016.62 1016.50 1016.54 1016.58 1016.42 1016.42 1016.30 1016.30 1016.14 1015.98 1015.94 1015.94 1015.78 1015.70 1015.62 1015.58 1015.50 1015.34 1015.10 1014.90 1014.70 1014.58 1014.62 1014.66 1014.54 1014.54 1014.50 1014.54 1014.58 1014.46
1018.26 1018.06 1017.94 1017.78 1017.82 1017.70 1017.54 1017.34 1017.22 1017.06 1016.98 1016.98 1016.98 1016.98 1016.94 1016.78 1016.66 1016.62 1016.58 1016.54 1016.58 1016.54 1016.62 1016.58 1016.42 1016.18 1016.02 1015.86 1015.82 1015.62 1015.30 1014.94 1014.74 1014.66 1014.62 1014.62 1014.58 1014.58 1014.50 1014.46 1014.42 1014.42
1018.46 1018.34 1018.14 1018.06 1017.98 1017.86 1017.74 1017.50 1017.34 1017.18 1017.14 1017.26 1017.18 1017.10 1016.98 1017.06 1017.14 1017.10 1017.06 1017.06 1017.10 1017.14 1017.18 1017.22 1017.10 1016.94 1016.78 1016.58 1016.38 1016.22 1015.94 1015.54 1015.10 1014.78 1014.78 1014.78 1014.78 1014.74 1014.58 1014.46 1014.50 1014.50
1018.62 1018.46 1018.34 1018.22 1018.10 1017.98 1017.86 1017.62 1017.46 1017.34 1017.30 1017.46 1017.38 1017.26 1017.34 1017.50 1017.54 1017.50 1017.46 1017.50 1017.54 1017.54 1017.66 1017.74 1017.66 1017.58 1017.50 1017.38 1017.18 1016.90 1016.54 1016.18 1015.78 1015.26 1014.86 1014.82 1014.86 1014.94 1014.70 1014.62 1014.66 1014.66
1018.70 1018.58 1018.50 1018.34 1018.22 1018.02 1017.90 1017.70 1017.54 1017.46 1017.46 1017.54 1017.46 1017.46 1017.54 1017.62 1017.70 1017.74 1017.82 1017.98 1018.10 1018.18 1018.26 1018.34 1018.42 1018.38 1018.26 1018.10 1017.82 1017.50 1017.14 1016.70 1016.18 1015.74 1015.30 1014.94 1014.82 1014.66 1014.70 1014.74 1014.70 1014.86
1018.74 1018.70 1018.62 1018.50 1018.34 1018.18 1018.02 1017.82 1017.70 1017.58 1017.54 1017.58 1017.58 1017.58 1017.54 1017.58 1017.74 1017.90 1018.06 1018.34 1018.62 1018.86 1018.98 1019.02 1019.02 1019.02 1019.02 1018.86 1018.46 1018.02 1017.58 1017.10 1016.54 1015.98 1015.46 1015.10 1014.94 1014.78 1014.70 1014.70 1014.90 1015.22
1018.86 1018.82 1018.62 1018.54 1018.42 1018.30 1018.14 1017.98 1017.94 1017.90 1017.78 1017.78 1017.66 1017.66 1017.66 1017.70 1017.78 1018.06 1018.22 1018.46 1018.82 1019.10 1019.38 1019.54 1019.58 1019.58 1019.58 1019.46 1019.06 1018.62 1018.14 1017.62 1016.90 1016.26 1015.66 1015.22 1015.14 1015.02 1014.94 1014.94 1015.14 1015.62
1018.74 1018.70 1018.54 1018.50 1018.42 1018.30 1018.26 1018.18 1018.14 1018.10 1018.02 1017.98 1017.94 1017.98 1017.94 1017.82 1017.82 1017.94 1018.26 1018.46 1018.82 1019.18 1019.62 1019.90 1020.02 1020.06 1020.06 1019.98 1019.70 1019.22 1018.66 1018.02 1017.30 1016.62 1015.94 1015.54 1015.46 1015.42 1015.30 1015.30 1015.70 1016.06
1018.46 1018.50 1018.38 1018.46 1018.34 1018.38 1018.34 1018.26 1018.26 1018.22 1018.18 1018.14 1018.14 1018.18 1018.18 1018.06 1017.98 1017.86 1018.02 1018.34 1018.98 1019.42 1019.78 1020.18 1020.46 1020.66 1020.78 1020.70 1020.26 1019.54 1019.14 1018.38 1017.66 1017.02 1016.26 1016.02 1016.02 1015.94 1015.82 1015.70 1015.94 1016.46
1018.62 1018.54 1018.38 1018.46 1018.42 1018.50 1018.42 1018.38 1018.38 1018.34 1018.30 1018.34 1018.34 1018.38 1018.38 1018.42 1018.34 1018.30 1018.18 1018.42 1019.26 1019.70 1020.10 1020.38 1020.78 1020.98 1021.06 1020.90 1020.62 1020.18 1019.50 1018.70 1017.94 1017.18 1016.50 1016.46 1016.50 1016.46 1016.30 1016.26 1016.30 1016.58
1018.58 1018.62 1018.58 1018.62 1018.54 1018.58 1018.58 1018.54 1018.50 1018.46 1018.50 1018.54 1018.62 1018.58 1018.66 1018.78 1018.82 1018.78 1018.74 1018.86 1019.66 1020.06 1020.38 1020.66 1020.98 1021.22 1021.06 1020.70 1020.22 1019.98 1019.54 1018.94 1018.26 1017.34 1016.82 1016.86 1016.90 1016.78 1016.78 1016.90 1016.90 1016.70
1018.70 1018.62 1018.74 1018.82 1018.70 1018.74 1018.82 1018.78 1018.74 1018.74 1018.74 1018.78 1018.86 1018.86 1018.90 1018.98 1019.14 1019.22 1019.26 1019.34 1019.94 1020.30 1020.70 1020.98 1021.18 1021.38 1020.98 1020.54 1020.14 1019.66 1019.42 1019.06 1018.22 1017.34 1017.26 1017.26 1017.34 1017.18 1017.10 1017.42 1017.34 1017.22
1018.78 1018.82 1018.90 1018.94 1018.94 1018.90 1018.94 1018.98 1019.02 1019.10 1019.06 1019.02 1019.06 1019.02 1019.06 1019.26 1019.46 1019.66 1019.78 1019.70 1020.02 1020.58 1020.90 1021.22 1021.38 1021.46 1021.06 1020.62 1020.18 1019.66 1019.06 1018.70 1018.02 1017.58 1017.70 1017.66 1017.62 1017.46 1017.42 1017.82 1017.90 1017.90
1018.94 1019.02 1019.06 1019.10 1019.14 1019.18 1019.14 1019.22 1019.30 1019.38 1019.30 1019.22 1019.22 1019.26 1019.34 1019.54 1019.70 1020.06 1020.22 1020.26 1020.18 1020.62 1021.06 1021.46 1021.70 1021.66 1021.18 1020.78 1020.38 1019.86 1019.22 1018.66 1018.10 1018.14 1018.10 1017.98 1017.86 1017.66 1017.82 1018.22 1018.30 1018.46
1019.14 1019.18 1019.26 1019.26 1019.30 1019.38 1019.42 1019.54 1019.62 1019.62 1019.58 1019.54 1019.50 1019.58 1019.62 1019.74 1019.98 1020.26 1020.54 1020.66 1020.50 1020.58 1021.10 1021.62 1022.10 1021.90 1021.42 1021.02 1020.66 1020.18 1019.58 1018.82 1018.50 1018.54 1018.50 1018.26 1018.02 1017.86 1018.26 1018.58 1018.82 1018.98
1019.22 1019.38 1019.38 1019.38 1019.46 1019.58 1019.70 1019.78 1019.82 1019.86 1019.86 1019.74 1019.70 1019.78 1019.74 1019.78 1020.02 1020.34 1020.70 1020.90 1020.90 1020.74 1021.02 1021.66 1022.18 1022.14 1021.70 1021.38 1021.02 1020.62 1020.02 1019.26 1018.98 1018.90 1018.86 1018.62 1018.26 1018.26 1018.78 1019.02 1019.30 1019.50
1019.34 1019.50 1019.58 1019.58 1019.66 1019.78 1019.90 1019.98 1019.98 1020.02 1019.98 1019.86 1019.78 1019.86 1019.94 1019.94 1020.18 1020.50 1020.78 1021.02 1021.10 1021.06 1021.06 1021.78 1022.26 1022.34 1022.02 1021.78 1021.38 1021.06 1020.54 1019.94 1019.54 1019.46 1019.38 1019.18 1018.74 1018.62 1019.06 1019.38 1019.50 1019.66
1019.50 1019.54 1019.66 1019.78 1019.94 1020.06 1020.10 1020.10 1020.10 1020.10 1020.06 1019.90 1019.82 1019.90 1019.98 1020.02 1020.18 1020.50 1020.74 1020.98 1021.14 1021.26 1021.18 1021.74 1022.46 1022.58 1022.34 1022.14 1021.90 1021.50 1021.06 1020.54 1020.18 1020.14 1020.06 1019.86 1019.42 1018.94 1019.22 1019.46 1019.46 1019.38
1019.78 1019.82 1019.86 1019.94 1020.14 1020.26 1020.26 1020.22 1020.26 1020.26 1020.18 1020.06 1019.94 1019.94 1020.02 1020.02 1020.14 1020.34 1020.54 1020.78 1020.86 1020.98 1021.10 1021.42 1022.18 1022.58 1022.46 1022.30 1022.14 1021.98 1021.54 1021.06 1020.86 1020.90 1020.74 1020.58 1020.10 1019.42 1018.78 1018.94 1019.10 1019.34
1019.98 1020.10 1020.18 1020.14 1020.22 1020.34 1020.38 1020.38 1020.34 1020.34 1020.30 1020.18 1020.22 1020.26 1020.30 1020.30 1020.14 1020.06 1020.22 1020.50 1020.54 1020.62 1020.98 1021.18 1021.98 1022.58 1022.62 1022.42 1022.34 1022.22 1022.02 1021.62 1021.42 1021.42 1021.50 1021.18 1020.66 1020.02 1019.46 1019.22 1019.26 1019.26
Thickness
5590 5591 5591 5590 5592 5593 5592 5592 5592 5591 5592 5595 5597 5600 5603 5605 5607 5608 5610 5609 5606 5603 5605 5609 5611 5612 5615 5617 5616 5618 5621 5624 5627 5632 5634 5635 5638 5640 5641 5642 5643 5642
5588 5588 5589 5590 5590 5590 5591 5591 5591 5590 5591 5593 5596 5598 5600 5603 5605 5606 5606 5606 5603 5601 5600 5602 5607 5609 5610 5611 5611 5613 5616 5619 5622 5624 5626 5628 5630 5632 5634 5635 5636 5637
5586 5586 5587 5587 5587 5588 5588 5589 5589 5589 5589 5591 5593 5595 5597 5600 5602 5603 5604 5603 5601 5599 5598 5599 5603 5605 5607 5609 5610 5611 5613 5617 5620 5620 5620 5621 5622 5625 5628 5630 5632 5633
5584 5584 5584 5585 5585 5585 5586 5586 5587 5586 5586 5588 5591 5592 5594 5596 5598 5599 5599 5597 5595 5594 5596 5599 5601 5602 5604 5607 5608 5609 5611 5614 5617 5618 5618 5620 5620 5622 5625 5626 5629 5630
5581 5581 5582 5582 5582 5582 5583 5582 5584 5584 5585 5587 5588 5590 5591 5592 5593 5593 5592 5592 5591 5590 5592 5596 5597 5599 5601 5604 5606 5607 5609 5611 5613 5615 5616 5619 5620 5621 5622 5623 5624 5624
5577 5578 5579 5579 5580 5580 5580 5580 5581 5582 5583 5584 5586 5588 5588 5588 5588 5588 5587 5588 5589 5590 5590 5592 5594 5595 5598 5599 5601 5604 5606 5608 5611 5612 5613 5615 5617 5617 5618 5620 5621 5621
5572 5574 5575 5576 5576 5577 5577 5578 5578 5580 5580 5581 5582 5583 5583 5583 5584 5584 5585 5585 5587 5588 5588 5589 5590 5591 5593 5594 5596 5598 5602 5605 5607 5610 5610 5612 5613 5613 5614 5615 5618 5619
5569 5570 5571 5571 5572 5573 5574 5576 5576 5577 5578 5578 5579 5579 5579 5580 5580 5580 5581 5581 5582 5582 5582 5583 5584 5586 5587 5589 5590 5592 5596 5599 5603 5605 5606 5608 5609 5609 5610 5612 5613 5615
5565 5566 5568 5568 5569 5569 5570 5572 5573 5575 5575 5575 5575 5576 5576 5577 5576 5575 5575 5576 5576 5576 5576 5576 5577 5579 5580 5581 5583 5585 5587 5591 5595 5599 5601 5602 5603 5603 5605 5606 5608 5610
5562 5563 5564 5565 5566 5567 5568 5569 5570 5572 5572 5571 5572 5572 5573 5571 5570 5571 5570 5570 5571 5570 5570 5570 5570 5572 5573 5573 5575 5577 5580 5583 5586 5591 5595 5597 5598 5598 5598 5600 5602 5603
5561 5561 5561 5563 5563 5564 5566 5567 5568 5569 5569 5568 5569 5569 5568 5568 5567 5567 5566 5565 5564 5564 5563 5563 5563 5564 5564 5566 5568 5570 5573 5576 5580 5584 5588 5591 5593 5594 5594 5596 5596 5596
5559 5559 5559 5560 5561 5562 5563 5565 5565 5566 5566 5565 5566 5566 5566 5566 5565 5563 5562 5560 5557 5556 5556 5556 5556 5557 5557 5558 5561 5564 5567 5569 5574 5578 5583 5586 5588 5589 5590 5591 5590 5588
5558 5557 5558 5559 5559 5560 5561 5562 5562 5562 5562 5562 5563 5563 5563 5563 5562 5560 5558 5556 5553 5552 5550 5549 5549 5550 5550 5552 5554 5557 5560 5563 5568 5572 5577 5581 5582 5583 5583 5583 5583 5581
5558 5557 5559 5558 5558 5559 5558 5559 5559 5558 5559 5559 5559 5559 5559 5560 5560 5558 5556 5553 5551 5549 5546 5544 5544 5544 5545 5545 5547 5550 5553 5557 5562 5566 5571 5574 5574 5575 5576 5575 5575 5573
5558 5558 5559 5558 5557 5557 5557 5557 5557 5556 5556 5557 5556 5556 5555 5556 5557 5556 5555 5553 5549 5545 5543 5540 5539 5538 5538 5538 5541 5545 5548 5551 5556 5559 5564 5566 5565 5565 5567 5568 5567 5566
5557 5557 5558 5557 5556 5556 5555 5555 5555 5554 5555 5554 5553 5553 5552 5552 5552 5552 5553 5550 5545 5542 5539 5537 5535 5533 5533 5535 5537 5540 5544 5547 5551 5555 5558 5558 5557 5557 5558 5558 5559 5559
5556 5556 5555 5555 5555 5554 5553 5553 5553 5553 5553 5551 5551 5550 5549 5548 5547 5547 5548 5546 5541 5538 5535 5533 5532 5530 5532 5535 5537 5539 5541 5544 5547 5552 5554 5553 5551 5552 5551 5549 5550 5552
5554 5554 5553 5552 5552 5552 5551 5551 5551 5550 5550 5549 5548 5547 5546 5546 5544 5543 5543 5541 5538 5534 5531 5530 5528 5528 5530 5533 5536 5538 5539 5541 5545 5548 5549 5547 5546 5547 5545 5542 5542 5544
5552 5551 5551 5549 5550 5549 5548 5548 5547 5547 5546 5546 5546 5545 5544 5543 5540 5538 5537 5537 5535 5531 5528 5526 5525 5525 5528 5530 5533 5536 5538 5540 5543 5544 5544 5542 5542 5543 5541 5537 5535 5536
5548 5548 5547 5547 5547 5546 5546 5545 5544 5543 5543 5543 5543 5541 5540 5539 5537 5534 5533 5532 5532 5529 5526 5524 5522 5522 5525 5527 5530 5532 5535 5538 5540 5540 5539 5538 5539 5539 5537 5533 5530 5530
5545 5545 5544 5544 5543 5543 5542 5541 5540 5539 5539 5540 5539 5538 5537 5536 5533 5531 5529 5528 5528 5527 5524 5520 5518 5519 5522 5524 5526 5528 5531 5535 5536 5535 5534 5535 5536 5535 5532 5528 5526 5524
5542 5541 5540 5541 5540 5539 5538 5537 5536 5536 5535 5536 5536 5535 5535 5534 5531 5529 5526 5524 5524 5524 5522 5518 5515 5516 5517 5519 5521 5524 5526 5530 5531 5530 5529 5530 5532 5531 5527 5524 5522 5519
5539 5538 5537 5537 5536 5535 5534 5533 5534 5533 5533 5533 5534 5533 5532 5531 5530 5527 5524 5522 5521 5521 5520 5516 5511 5512 5514 5515 5516 5518 5521 5523 5525 5524 5524 5524 5526 5526 5523 5519 5517 5516
5535 5535 5534 5533 5532 5531 5531 5531 5531 5530 5531 5531 5532 5531 5531 5530 5528 5525 5523 5521 5519 5518 5517 5514 5509 5508 5509 5510 5511 5512 5515 5517 5517 5517 5516 5517 5519 5521 5520 5517 5514 5513
5531 5531 5531 5530 5529 5528 5528 5528 5528 5528 5528 5529 5529 5529 5528 5528 5527 5525 5522 5521 5519 5518 5516 5513 5509 5506 5506 5506 5507 5507 5508 5510 5510 5509 5508 5509 5511 5514 5516 5515 5512 5510
5528 5527 5527 5527 5526 5526 5526 5526 5526 5526 5526 5527 5527 5526 5525 5524 5525 5525 5523 5521 5520 5518 5516 5513 5508 5504 5502 5503 5502 5502 5502 5504 5504 5502 5501 5501 5503 5506 5508 5508 5507 5505